Regional Weather Roundup
Issued by NWS

Home | Current Version | Previous Version | Text Only | Print | Product List | Glossary Off
Versions: 1 2 3 4 5 6 7 8 9 10 11 12 13 14 15 16 17 18 19 20 21 22 23 24 25 26 27 28 29 30 31 32 33 34 35 36 37 38 39 40 41 42 43 44 45 46 47 48 49 50

000
ASUS43 KLSX 061407
RWRMO

WEATHER SUMMARY FOR MISSOURI
NATIONAL WEATHER SERVICE SPRINGFIELD MO
900 AM CDT FRI MAY 06 2016

NOTE: "FAIR" INDICATES FEW OR NO CLOUDS BELOW 12,000 FEET WITH NO
       SIGNIFICANT WEATHER AND/OR OBSTRUCTIONS TO VISIBILITY.
       CURRENT SKY AND/OR WEATHER CONDITIONS ARE NOT AVAILABLE FOR
       CHILLICOTHE AND FARMINGTON.

MOZ001>031-035>038-043-044-053-054-061500-
...NORTHERN AND WESTERN MISSOURI...

CITY           SKY/WX    TMP DP  RH WIND       PRES   REMARKS
KANSAS CTY INT MOSUNNY   63  44  50 SW13      30.08R
KANSAS C DTWN  SUNNY     64  45  49 SW5       30.08R
LEE`S SUMMIT   SUNNY     65  41  41 SW12      30.09S
ST JOSEPH      SUNNY     61  48  62 S7        30.07S
CHILLICOTHE      N/A     64  45  49 SW6       30.08R
KIRKSVILLE     SUNNY     63  39  41 W7        30.07S

$$
MOZ066>068-077>081-088>096-101>105-061500-
...SOUTHWEST MISSOURI...

CITY           SKY/WX    TMP DP  RH WIND       PRES   REMARKS
SPRINGFIELD    SUNNY     61  41  47 S6        30.10F
JOPLIN         SUNNY     62  43  49 S7        30.12R
BRANSON        SUNNY     59  39  47 CALM      30.14R

$$
MOZ032>034-039>042-045>050-055>058-069>072-061500-
...CENTRAL MISSOURI...

CITY           SKY/WX    TMP DP  RH WIND       PRES   REMARKS
COLUMBIA       SUNNY     62  43  49 SW9       30.10R
JEFFERSON CITY SUNNY     56  45  66 SE3       30.09F
ROLLA          SUNNY     55  43  63 SW7       30.10R
SEDALIA        SUNNY     62  43  49 SW12      30.10S
WHITEMAN AFB   SUNNY     62  45  53 SW8       30.08S
WARRENSBURG    SUNNY     61  43  51 S6        30.10R
OSAGE BEACH    SUNNY     55  39  54 S3        30.11S

$$
MOZ051-052-059>065-061500-
...EAST CENTRAL MISSOURI...

CITY           SKY/WX    TMP DP  RH WIND       PRES   REMARKS
ST LOUIS INTL  SUNNY     62  44  51 W8        30.09S
SPIRIT OF STL  SUNNY     58  46  64 W8        30.08S
ST CHARLES     SUNNY     58  44  60 W6        30.08S

$$
MOZ072>076-082>087-097>100-106>115-061500-
...SOUTH CENTRAL AND SOUTHEAST MISSOURI...

CITY           SKY/WX    TMP DP  RH WIND       PRES   REMARKS
CAPE GIRARDEAU SUNNY     57  47  69 W5        30.09S
FARMINGTON     SUNNY     59  45  59 W5        30.11R
POPLAR BLUFF   SUNNY     58  47  66 NW7       30.11R
WEST PLAINS    SUNNY     58  43  57 W7        30.13R

$$


USA.gov is the U.S. government's official web portal to all federal, state and local government web resources and services.